"Period start","avg(HW err(1)/warn(2) (#))","avg(Visibility (m))","avg(Weather code (#))","avg(Precip intensity (mm/h))","min(HW err(1)/warn(2) (#))","max(HW err(1)/warn(2) (#))","std(HW err(1)/warn(2) (#))","med(HW err(1)/warn(2) (#))","min(Visibility (m))","max(Visibility (m))","std(Visibility (m))","med(Visibility (m))","min(Weather code (#))","max(Weather code (#))","std(Weather code (#))","med(Weather code (#))","min(Precip intensity (mm/h))","max(Precip intensity (mm/h))","std(Precip intensity (mm/h))","med(Precip intensity (mm/h))"
2013-09-21 00:00:00,2,49684,0,0.00,2,2,0,2,46890,50000,932,50000,0,0,0,0,0.00,0.00,0.00,0.00
2013-09-21 00:10:00,2,45394,0,0.00,2,2,0,2,34166,50000,5401,48156,0,0,0,0,0.00,0.00,0.00,0.00
2013-09-21 00:20:00,2,40666,0,0.00,2,2,0,2,29810,50000,6905,41303,0,0,0,0,0.00,0.00,0.00,0.00
2013-09-21 00:30:00,2,43271,0,0.00,2,2,0,2,32286,50000,5547,43721,0,0,0,0,0.00,0.00,0.00,0.00
2013-09-21 00:40:00,2,44275,0,0.00,2,2,0,2,35474,50000,4578,45151,0,0,0,0,0.00,0.00,0.00,0.00
2013-09-21 00:50:00,2,43747,0,0.00,2,2,0,2,30096,50000,6903,46630,0,0,0,0,0.00,0.00,0.00,0.00
2013-09-21 01:00:00,2,45024,0,0.00,2,2,0,2,38051,50000,3606,44862,0,0,0,0,0.00,0.00,0.00,0.00
2013-09-21 01:10:00,2,47178,0,0.00,2,2,0,2,37460,50000,4071,50000,0,0,0,0,0.00,0.00,0.00,0.00
2013-09-21 01:20:00,2,40385,0,0.00,2,2,0,2,36027,47251,3549,39907,0,0,0,0,0.00,0.00,0.00,0.00
2013-09-21 01:30:00,2,45416,0,0.00,2,2,0,2,36755,50000,4035,46744,0,0,0,0,0.00,0.00,0.00,0.00
2013-09-21 01:40:00,2,43334,0,0.00,2,2,0,2,31460,50000,6128,44160,0,0,0,0,0.00,0.00,0.00,0.00
2013-09-21 01:50:00,2,45976,0,0.00,2,2,0,2,38898,50000,4220,47490,0,0,0,0,0.00,0.00,0.00,0.00
2013-09-21 02:00:00,2,47495,0,0.00,2,2,0,2,38044,50000,3565,48885,0,0,0,0,0.00,0.00,0.00,0.00
2013-09-21 02:10:00,2,41976,0,0.00,2,2,0,2,26423,50000,7174,43785,0,0,0,0,0.00,0.00,0.00,0.00
2013-09-21 02:20:00,2,42311,0,0.00,2,2,0,2,33665,50000,5508,41098,0,0,0,0,0.00,0.00,0.00,0.00
2013-09-21 02:30:00,2,49400,0,0.00,2,2,0,2,44791,50000,1544,50000,0,0,0,0,0.00,0.00,0.00,0.00
2013-09-21 02:40:00,2,47803,0,0.00,2,2,0,2,40005,50000,3202,49802,0,0,0,0,0.00,0.00,0.00,0.00
2013-09-21 02:50:00,2,43508,0,0.00,2,2,0,2,26857,50000,7560,46424,0,0,0,0,0.00,0.00,0.00,0.00
2013-09-21 03:00:00,2,49320,0,0.00,2,2,0,2,45740,50000,1251,49944,0,0,0,0,0.00,0.00,0.00,0.00
2013-09-21 03:10:00,2,46554,0,0.00,2,2,0,2,35940,50000,4601,49384,0,0,0,0,0.00,0.00,0.00,0.00
2013-09-21 03:20:00,2,44623,0,0.00,2,2,0,2,28383,50000,7749,50000,0,0,0,0,0.00,0.00,0.00,0.00
2013-09-21 03:30:00,2,45628,0,0.00,2,2,0,2,40475,50000,3456,46418,0,0,0,0,0.00,0.00,0.00,0.00
2013-09-21 03:40:00,2,38780,0,0.00,2,2,0,2,30398,49157,6063,39061,0,0,0,0,0.00,0.00,0.00,0.00
2013-09-21 03:50:00,2,48360,0,0.00,2,2,0,2,43176,50000,2174,49428,0,0,0,0,0.00,0.00,0.00,0.00
2013-09-21 04:00:00,2,47370,0,0.00,2,2,0,2,43744,50000,2243,47083,0,0,0,0,0.00,0.00,0.00,0.00
2013-09-21 04:10:00,2,45921,0,0.00,2,2,0,2,36560,50000,4440,47330,0,0,0,0,0.00,0.00,0.00,0.00
2013-09-21 04:20:00,2,46218,0,0.00,2,2,0,2,37893,50000,4054,47268,0,0,0,0,0.00,0.00,0.00,0.00
2013-09-21 04:30:00,2,47499,0,0.00,2,2,0,2,39091,50000,3125,47784,0,0,0,0,0.00,0.00,0.00,0.00
2013-09-21 04:40:00,2,41366,0,0.00,2,2,0,2,29778,47298,5271,43005,0,0,0,0,0.00,0.00,0.00,0.00
2013-09-21 04:50:00,2,47769,0,0.00,2,2,0,2,30254,50000,5864,50000,0,0,0,0,0.00,0.00,0.00,0.00
2013-09-21 05:00:00,2,45486,0,0.00,2,2,0,2,39107,50000,4301,45545,0,0,0,0,0.00,0.00,0.00,0.00
2013-09-21 05:10:00,2,39921,0,0.00,2,2,0,2,29932,47852,5499,39399,0,0,0,0,0.00,0.00,0.00,0.00
2013-09-21 05:20:00,2,42484,0,0.00,2,2,0,2,27457,50000,8278,45820,0,0,0,0,0.00,0.00,0.00,0.00
2013-09-21 05:30:00,2,46036,0,0.00,2,2,0,2,38211,50000,3614,46789,0,0,0,0,0.00,0.00,0.00,0.00
2013-09-21 05:40:00,2,50000,0,0.00,2,2,0,2,50000,50000,0,50000,0,0,0,0,0.00,0.00,0.00,0.00
2013-09-21 05:50:00,2,49483,0,0.00,2,2,0,2,48197,50000,704,50000,0,0,0,0,0.00,0.00,0.00,0.00
2013-09-21 06:00:00,2,49664,0,0.00,2,2,0,2,47625,50000,740,50000,0,0,0,0,0.00,0.00,0.00,0.00
2013-09-21 06:10:00,2,46569,0,0.00,2,2,0,2,40122,50000,3681,48534,0,0,0,0,0.00,0.00,0.00,0.00
2013-09-21 06:20:00,2,46413,0,0.00,2,2,0,2,31140,50000,5649,49707,0,0,0,0,0.00,0.00,0.00,0.00
2013-09-21 06:30:00,2,48121,0,0.00,2,2,0,2,44056,50000,1993,48551,0,0,0,0,0.00,0.00,0.00,0.00
2013-09-21 06:40:00,2,50000,0,0.00,2,2,0,2,50000,50000,0,50000,0,0,0,0,0.00,0.00,0.00,0.00
2013-09-21 06:50:00,2,49633,0,0.00,2,2,0,2,46634,50000,1004,50000,0,0,0,0,0.00,0.00,0.00,0.00
2013-09-21 07:00:00,2,50000,0,0.00,2,2,0,2,50000,50000,0,50000,0,0,0,0,0.00,0.00,0.00,0.00
2013-09-21 07:10:00,2,49516,0,0.00,2,2,0,2,45937,50000,1215,50000,0,0,0,0,0.00,0.00,0.00,0.00
2013-09-21 07:20:00,2,49313,0,0.00,2,2,0,2,43129,50000,2061,50000,0,0,0,0,0.00,0.00,0.00,0.00
2013-09-21 07:30:00,2,49545,0,0.00,2,2,0,2,45509,50000,1346,50000,0,0,0,0,0.00,0.00,0.00,0.00
2013-09-21 07:40:00,2,49811,0,0.00,2,2,0,2,48747,50000,402,50000,0,0,0,0,0.00,0.00,0.00,0.00
2013-09-21 07:50:00,2,49843,0,0.00,2,2,0,2,48462,50000,461,50000,0,0,0,0,0.00,0.00,0.00,0.00
2013-09-21 08:00:00,2,49944,0,0.00,2,2,0,2,49442,50000,167,50000,0,0,0,0,0.00,0.00,0.00,0.00
2013-09-21 08:10:00,2,49989,0,0.00,2,2,0,2,49890,50000,33,50000,0,0,0,0,0.00,0.00,0.00,0.00
2013-09-21 08:20:00,2,50000,0,0.00,2,2,0,2,50000,50000,0,50000,0,0,0,0,0.00,0.00,0.00,0.00
2013-09-21 08:30:00,2,50000,0,0.00,2,2,0,2,50000,50000,0,50000,0,0,0,0,0.00,0.00,0.00,0.00
2013-09-21 08:40:00,2,50000,0,0.00,2,2,0,2,50000,50000,0,50000,0,0,0,0,0.00,0.00,0.00,0.00
2013-09-21 08:50:00,2,50000,0,0.00,2,2,0,2,50000,50000,0,50000,0,0,0,0,0.00,0.00,0.00,0.00
2013-09-21 09:00:00,2,50000,0,0.00,2,2,0,2,50000,50000,0,50000,0,0,0,0,0.00,0.00,0.00,0.00
2013-09-21 09:10:00,2,50000,0,0.00,2,2,0,2,50000,50000,0,50000,0,0,0,0,0.00,0.00,0.00,0.00
2013-09-21 09:20:00,2,50000,0,0.00,2,2,0,2,50000,50000,0,50000,0,0,0,0,0.00,0.00,0.00,0.00
2013-09-21 09:30:00,2,49983,0,0.00,2,2,0,2,49827,50000,52,50000,0,0,0,0,0.00,0.00,0.00,0.00
2013-09-21 09:40:00,2,50000,0,0.00,2,2,0,2,50000,50000,0,50000,0,0,0,0,0.00,0.00,0.00,0.00
2013-09-21 09:50:00,2,50000,0,0.00,2,2,0,2,50000,50000,0,50000,0,0,0,0,0.00,0.00,0.00,0.00
2013-09-21 10:00:00,2,50000,0,0.00,2,2,0,2,50000,50000,0,50000,0,0,0,0,0.00,0.00,0.00,0.00
2013-09-21 10:10:00,2,50000,0,0.00,2,2,0,2,50000,50000,0,50000,0,0,0,0,0.00,0.00,0.00,0.00
2013-09-21 10:20:00,2,50000,0,0.00,2,2,0,2,50000,50000,0,50000,0,0,0,0,0.00,0.00,0.00,0.00
2013-09-21 10:30:00,2,50000,0,0.00,2,2,0,2,50000,50000,0,50000,0,0,0,0,0.00,0.00,0.00,0.00
2013-09-21 10:40:00,2,50000,0,0.00,2,2,0,2,50000,50000,0,50000,0,0,0,0,0.00,0.00,0.00,0.00
2013-09-21 10:50:00,2,50000,0,0.00,2,2,0,2,50000,50000,0,50000,0,0,0,0,0.00,0.00,0.00,0.00
2013-09-21 11:00:00,2,50000,0,0.00,2,2,0,2,50000,50000,0,50000,0,0,0,0,0.00,0.00,0.00,0.00
2013-09-21 11:10:00,2,50000,0,0.00,2,2,0,2,50000,50000,0,50000,0,0,0,0,0.00,0.00,0.00,0.00
2013-09-21 11:20:00,2,50000,0,0.00,2,2,0,2,50000,50000,0,50000,0,0,0,0,0.00,0.00,0.00,0.00
2013-09-21 11:30:00,2,50000,0,0.00,2,2,0,2,50000,50000,0,50000,0,0,0,0,0.00,0.00,0.00,0.00
2013-09-21 11:40:00,2,49822,0,0.00,2,2,0,2,48222,50000,533,50000,0,0,0,0,0.00,0.00,0.00,0.00
2013-09-21 11:50:00,2,50000,0,0.00,2,2,0,2,50000,50000,0,50000,0,0,0,0,0.00,0.00,0.00,0.00
2013-09-21 12:00:00,2,50000,0,0.00,2,2,0,2,50000,50000,0,50000,0,0,0,0,0.00,0.00,0.00,0.00
2013-09-21 12:10:00,2,50000,0,0.00,2,2,0,2,50000,50000,0,50000,0,0,0,0,0.00,0.00,0.00,0.00
2013-09-21 12:20:00,2,50000,0,0.00,2,2,0,2,50000,50000,0,50000,0,0,0,0,0.00,0.00,0.00,0.00
2013-09-21 12:30:00,2,50000,0,0.00,2,2,0,2,50000,50000,0,50000,0,0,0,0,0.00,0.00,0.00,0.00
2013-09-21 12:40:00,2,49868,0,0.00,2,2,0,2,48677,50000,397,50000,0,0,0,0,0.00,0.00,0.00,0.00
2013-09-21 12:50:00,2,50000,0,0.00,2,2,0,2,50000,50000,0,50000,0,0,0,0,0.00,0.00,0.00,0.00
2013-09-21 13:00:00,2,50000,0,0.00,2,2,0,2,50000,50000,0,50000,0,0,0,0,0.00,0.00,0.00,0.00
2013-09-21 13:10:00,2,50000,0,0.00,2,2,0,2,50000,50000,0,50000,0,0,0,0,0.00,0.00,0.00,0.00
2013-09-21 13:20:00,2,50000,0,0.00,2,2,0,2,50000,50000,0,50000,0,0,0,0,0.00,0.00,0.00,0.00
2013-09-21 13:30:00,2,50000,0,0.00,2,2,0,2,50000,50000,0,50000,0,0,0,0,0.00,0.00,0.00,0.00
2013-09-21 13:40:00,2,49884,0,0.00,2,2,0,2,48844,50000,347,50000,0,0,0,0,0.00,0.00,0.00,0.00
2013-09-21 13:50:00,2,49904,0,0.00,2,2,0,2,49037,50000,289,50000,0,0,0,0,0.00,0.00,0.00,0.00
2013-09-21 14:00:00,2,49857,0,0.00,2,2,0,2,48567,50000,430,50000,0,0,0,0,0.00,0.00,0.00,0.00
2013-09-21 14:10:00,2,49910,0,0.00,2,2,0,2,49102,50000,269,50000,0,0,0,0,0.00,0.00,0.00,0.00
2013-09-21 14:20:00,2,50000,0,0.00,2,2,0,2,50000,50000,0,50000,0,0,0,0,0.00,0.00,0.00,0.00
2013-09-21 14:30:00,2,49881,0,0.00,2,2,0,2,49180,50000,258,50000,0,0,0,0,0.00,0.00,0.00,0.00
2013-09-21 14:40:00,2,50000,0,0.00,2,2,0,2,50000,50000,0,50000,0,0,0,0,0.00,0.00,0.00,0.00
2013-09-21 14:50:00,2,49910,0,0.00,2,2,0,2,49104,50000,269,50000,0,0,0,0,0.00,0.00,0.00,0.00
2013-09-21 15:00:00,2,49597,0,0.00,2,2,0,2,48211,50000,647,50000,0,0,0,0,0.00,0.00,0.00,0.00
2013-09-21 15:10:00,2,49908,0,0.00,2,2,0,2,49309,50000,211,50000,0,0,0,0,0.00,0.00,0.00,0.00
2013-09-21 15:20:00,2,50000,0,0.00,2,2,0,2,50000,50000,0,50000,0,0,0,0,0.00,0.00,0.00,0.00
2013-09-21 15:30:00,2,49754,0,0.00,2,2,0,2,48678,50000,494,50000,0,0,0,0,0.00,0.00,0.00,0.00
2013-09-21 15:40:00,2,50000,0,0.00,2,2,0,2,50000,50000,0,50000,0,0,0,0,0.00,0.00,0.00,0.00
2013-09-21 15:50:00,2,50000,0,0.00,2,2,0,2,50000,50000,0,50000,0,0,0,0,0.00,0.00,0.00,0.00
2013-09-21 16:00:00,2,49920,0,0.00,2,2,0,2,49203,50000,239,50000,0,0,0,0,0.00,0.00,0.00,0.00
2013-09-21 16:10:00,2,49864,0,0.00,2,2,0,2,48644,50000,407,50000,0,0,0,0,0.00,0.00,0.00,0.00
2013-09-21 16:20:00,2,50000,0,0.00,2,2,0,2,50000,50000,0,50000,0,0,0,0,0.00,0.00,0.00,0.00
2013-09-21 16:30:00,2,50000,0,0.00,2,2,0,2,50000,50000,0,50000,0,0,0,0,0.00,0.00,0.00,0.00
2013-09-21 16:40:00,2,50000,0,0.00,2,2,0,2,50000,50000,0,50000,0,0,0,0,0.00,0.00,0.00,0.00
2013-09-21 16:50:00,2,49914,0,0.00,2,2,0,2,49137,50000,259,50000,0,0,0,0,0.00,0.00,0.00,0.00
2013-09-21 17:00:00,2,49689,0,0.00,2,2,0,2,47830,50000,651,50000,0,0,0,0,0.00,0.00,0.00,0.00
2013-09-21 17:10:00,2,49779,0,0.00,2,2,0,2,47983,50000,601,50000,0,0,0,0,0.00,0.00,0.00,0.00
2013-09-21 17:20:00,2,50000,0,0.00,2,2,0,2,50000,50000,0,50000,0,0,0,0,0.00,0.00,0.00,0.00
2013-09-21 17:30:00,2,50000,0,0.00,2,2,0,2,50000,50000,0,50000,0,0,0,0,0.00,0.00,0.00,0.00
2013-09-21 17:40:00,2,50000,0,0.00,2,2,0,2,50000,50000,0,50000,0,0,0,0,0.00,0.00,0.00,0.00
2013-09-21 17:50:00,2,50000,0,0.00,2,2,0,2,50000,50000,0,50000,0,0,0,0,0.00,0.00,0.00,0.00
2013-09-21 18:00:00,2,50000,0,0.00,2,2,0,2,50000,50000,0,50000,0,0,0,0,0.00,0.00,0.00,0.00
2013-09-21 18:10:00,2,50000,0,0.00,2,2,0,2,50000,50000,0,50000,0,0,0,0,0.00,0.00,0.00,0.00
2013-09-21 18:20:00,2,50000,0,0.00,2,2,0,2,50000,50000,0,50000,0,0,0,0,0.00,0.00,0.00,0.00
2013-09-21 18:30:00,2,50000,0,0.00,2,2,0,2,50000,50000,0,50000,0,0,0,0,0.00,0.00,0.00,0.00
2013-09-21 18:40:00,2,49912,0,0.00,2,2,0,2,49317,50000,207,50000,0,0,0,0,0.00,0.00,0.00,0.00
2013-09-21 18:50:00,2,49865,0,0.00,2,2,0,2,48654,50000,404,50000,0,0,0,0,0.00,0.00,0.00,0.00
2013-09-21 19:00:00,2,49982,0,0.00,2,2,0,2,49848,50000,45,50000,0,0,0,0,0.00,0.00,0.00,0.00
2013-09-21 19:10:00,2,50000,0,0.00,2,2,0,2,50000,50000,0,50000,0,0,0,0,0.00,0.00,0.00,0.00
2013-09-21 19:20:00,2,49902,0,0.00,2,2,0,2,49353,50000,201,50000,0,0,0,0,0.00,0.00,0.00,0.00
2013-09-21 19:30:00,2,50000,0,0.00,2,2,0,2,50000,50000,0,50000,0,0,0,0,0.00,0.00,0.00,0.00
2013-09-21 19:40:00,2,50000,0,0.00,2,2,0,2,50000,50000,0,50000,0,0,0,0,0.00,0.00,0.00,0.00
2013-09-21 19:50:00,2,49938,0,0.00,2,2,0,2,49384,50000,185,50000,0,0,0,0,0.00,0.00,0.00,0.00
2013-09-21 20:00:00,2,49770,0,0.00,2,2,0,2,47696,50000,691,50000,0,0,0,0,0.00,0.00,0.00,0.00
2013-09-21 20:10:00,2,50000,0,0.00,2,2,0,2,50000,50000,0,50000,0,0,0,0,0.00,0.00,0.00,0.00
2013-09-21 20:20:00,2,50000,0,0.00,2,2,0,2,50000,50000,0,50000,0,0,0,0,0.00,0.00,0.00,0.00
2013-09-21 20:30:00,2,49692,0,0.00,2,2,0,2,46919,50000,924,50000,0,0,0,0,0.00,0.00,0.00,0.00
2013-09-21 20:40:00,2,49379,0,0.00,2,2,0,2,46455,50000,1213,50000,0,0,0,0,0.00,0.00,0.00,0.00
2013-09-21 20:50:00,2,49908,0,0.00,2,2,0,2,49085,50000,274,50000,0,0,0,0,0.00,0.00,0.00,0.00
2013-09-21 21:00:00,2,50000,0,0.00,2,2,0,2,50000,50000,0,50000,0,0,0,0,0.00,0.00,0.00,0.00
2013-09-21 21:10:00,2,50000,0,0.00,2,2,0,2,50000,50000,0,50000,0,0,0,0,0.00,0.00,0.00,0.00
2013-09-21 21:20:00,2,50000,0,0.00,2,2,0,2,50000,50000,0,50000,0,0,0,0,0.00,0.00,0.00,0.00
2013-09-21 21:30:00,2,49963,0,0.00,2,2,0,2,49632,50000,110,50000,0,0,0,0,0.00,0.00,0.00,0.00
2013-09-21 21:40:00,2,49841,0,0.00,2,2,0,2,49088,50000,322,50000,0,0,0,0,0.00,0.00,0.00,0.00
2013-09-21 21:50:00,2,49022,0,0.00,2,2,0,2,43575,50000,1932,50000,0,0,0,0,0.00,0.00,0.00,0.00
2013-09-21 22:00:00,2,49705,0,0.00,2,2,0,2,47951,50000,618,50000,0,0,0,0,0.00,0.00,0.00,0.00
2013-09-21 22:10:00,2,49410,0,0.00,2,2,0,2,46242,50000,1234,50000,0,0,0,0,0.00,0.00,0.00,0.00
2013-09-21 22:20:00,2,49758,0,0.00,2,2,0,2,47576,50000,727,50000,0,0,0,0,0.00,0.00,0.00,0.00
2013-09-21 22:30:00,2,49686,0,0.00,2,2,0,2,47472,50000,760,50000,0,0,0,0,0.00,0.00,0.00,0.00
2013-09-21 22:40:00,2,49170,0,0.00,2,2,0,2,43393,50000,1985,50000,0,0,0,0,0.00,0.00,0.00,0.00
2013-09-21 22:50:00,2,49238,0,0.00,2,2,0,2,47468,50000,1026,50000,0,0,0,0,0.00,0.00,0.00,0.00
2013-09-21 23:00:00,2,48400,0,0.00,2,2,0,2,43259,50000,2129,49580,0,0,0,0,0.00,0.00,0.00,0.00
2013-09-21 23:10:00,2,49721,0,0.00,2,2,0,2,48324,50000,573,50000,0,0,0,0,0.00,0.00,0.00,0.00
2013-09-21 23:20:00,2,49824,0,0.00,2,2,0,2,48237,50000,529,50000,0,0,0,0,0.00,0.00,0.00,0.00
2013-09-21 23:30:00,2,48165,0,0.00,2,2,0,2,46223,50000,1198,48018,0,0,0,0,0.00,0.00,0.00,0.00
2013-09-21 23:40:00,2,48808,0,0.00,2,2,0,2,43829,50000,2385,50000,0,0,0,0,0.00,0.00,0.00,0.00
2013-09-21 23:50:00,2,49941,0,0.00,2,2,0,2,49407,50000,178,50000,0,0,0,0,0.00,0.00,0.00,0.00
